www.pogodaiklimat.ru

Погода и климат >> Архив погоды >> Австралия >> Северная территория >> База ВВС Delamere Weapons Range


ПОГОДА на Базе ВВС Delamere Weapons Range

  • Прогноз погоды на Базе ВВС Delamere Weapons Range
  • Монитор погоды на Базе ВВС Delamere Weapons Range

АРХИВ ПОГОДЫ на Базе ВВС Delamere Weapons Range

Время (UTC), дата Ветер
(напр.,м/с)
 
Видим.   Явления Облачность Т
(С)
Тd
(С)
f
(%)
Тe
(С)
Тes
(С)
Комфортность P
(гПа)
Po
(гПа)
Тmin
(С)
Tmax
(С)
R
(мм)
R24
(мм)
S
(см)
14 15.07 ЮВ 5 н/о 9/0
[]
+19.5 -6.2 17 +19 +19 1017.5 991.9 +25.8
17 15.07 ЮВ 4 н/о н/о +18.4 -7.1 17 +18 +18 1017.2 991.6
20 15.07 ЮВ 4 н/о н/о +16.7 -6.3 20 +16 +16 1017.5 991.9
23 15.07 ЮВ 5 н/о н/о +17.7 -6.9 18 +17 +17 1019.1 993.5
02 16.07 В 7 н/о 8/0
[]
+22.7 -7.1 13 +21 +21 комфорт 1018.1 992.5 +15.3
05 16.07 ЮВ 5 н/о н/о +25.2 -7.3 11 +23 +23 комфорт 1015.0 989.5
08 16.07 ЮВ 5 н/о н/о +25.8 -8.1 10 +23 +23 комфорт 1014.4 988.9
11 16.07 ЮВ 5 н/о н/о +21.8 -4.3 17 +21 +21 комфорт 1016.3 990.8
14 16.07 ЮВ 5 н/о н/о +19.3 -2.3 23 +19 +19 1017.4 991.8 +27.1
17 16.07 ЮВ 4 н/о н/о +16.8 -2.3 27 +17 +17 1015.7 990.2
20 16.07 ЮВ 3 н/о н/о +15.3 -3.6 27 +15 +15 1015.4 989.9
23 16.07 ЮВ 5 н/о н/о +17.4 -1.3 28 +17 +17 1016.8 991.3
05 17.07 ЮВ 5 н/о н/о +27.1 -4.7 12 +24 +24 комфорт 1013.5 988.0
08 17.07 ЮВ 4 н/о н/о +27.3 -4.6 12 +24 +24 комфорт 1012.8 987.4
11 17.07 ЮВ 3 н/о н/о +22.3 -2.4 19 +21 +21 комфорт 1014.8 989.3
14 17.07 ЮВ 4 н/о н/о +20.4 -0.8 24 +21 +21 комфорт 1015.3 989.8 +28.9
17 17.07 ЮВ 5 н/о н/о +18.7 -0.7 27 +19 +19 1014.5 989.0
20 17.07 В 3 н/о н/о +14.7 -1.0 34 +14 +14 1015.2 989.7
23 17.07 В 4 н/о н/о +17.9 -1.9 26 +18 +18 1016.3 990.8
02 18.07 В 5 н/о н/о +25.4 -1.4 17 +24 +24 комфорт 1016.0 990.5 +14.1
05 18.07 В 5 н/о н/о +28.7 -5.9 10 +25 +25 комфорт 1012.9 987.5
08 18.07 В 4 н/о н/о +29.4 -6.7 9 +26 +26 жарко 1012.3 986.9
11 18.07 ЮВ 2 н/о н/о +20.9 -5.0 17 +21 +21 комфорт 1013.8 988.3
14 18.07 штиль 0 н/о н/о +16.3 -4.8 23 +16 +16 1014.7 989.2 +30.5
17 18.07 В 2 н/о н/о +15.9 -4.1 25 +16 +16 1014.4 988.9
20 18.07 В 2 н/о н/о +14.0 -2.4 32 +14 +14 1014.6 989.1
23 18.07 В 3 н/о н/о +17.8 -0.5 29 +18 +18 1016.2 990.7
02 19.07 В 5 н/о н/о +27.2 +0.8 18 +25 +25 комфорт 1015.6 990.1 +12.6
05 19.07 В 5 н/о н/о +30.3 -0.1 14 +27 +27 жарко 1012.3 986.9
08 19.07 В 4 н/о н/о +31.0 -1.7 12 +28 +28 жарко 1011.7 986.3
11 19.07 ЮВ 3 н/о н/о +25.0 -0.2 19 +23 +23 комфорт 1013.7 988.2
14 19.07 В 3 н/о н/о +20.0 -0.1 26 +21 +21 комфорт 1015.0 989.5
17 19.07 В 3 н/о н/о +17.9 -1.3 27 +18 +18 1014.8 989.3
20 19.07 В 3 н/о н/о +16.2 -1.8 29 +16 +16 1014.5 989.0
23 19.07 В 3 н/о н/о +19.0 +0.6 29 +19 +19 1016.2 990.7
02 20.07 СВ 6 н/о н/о +27.7 +1.2 18 +26 +26 жарко 1015.4 989.9
05 20.07 В 3 н/о н/о +32.5 -3.0 10 +29 +29 жарко 1012.1 986.7
08 20.07 ЮВ 5 н/о н/о +32.2 -3.2 10 +28 +28 жарко 1010.8 985.4
11 20.07 В 2 н/о н/о +22.7 -2.1 19 +21 +21 комфорт 1012.5 987.1
14 20.07 В 2 н/о н/о +18.6 -2.3 24 +19 +19 1013.5 988.0 +34.0
17 20.07 В 3 н/о н/о +17.7 -3.7 23 +18 +18 1013.5 988.0
20 20.07 Ю 2 н/о н/о +14.5 -2.4 31 +15 +15 1013.5 988.0
23 20.07 В 2 н/о н/о +17.4 +1.8 35 +18 +18 1015.0 989.5
02 21.07 СВ 3 н/о н/о +28.2 +3.1 20 +26 +26 жарко 1014.2 988.7 +12.5
05 21.07 В 3 н/о н/о +31.8 -3.5 10 +28 +28 жарко 1010.5 985.1
08 21.07 В 3 н/о н/о +32.0 -3.4 10 +28 +28 жарко 1009.8 984.4
11 21.07 В 2 н/о н/о +22.7 -2.1 19 +21 +21 комфорт 1011.6 986.2
14 21.07 СВ 2 н/о н/о +18.7 -1.2 26 +19 +19 1011.9 986.5 +33.3
17 21.07 СВ 3 н/о н/о +18.7 -0.2 28 +19 +19 1011.8 986.4
20 21.07 СВ 2 н/о н/о +16.2 -0.5 32 +16 +16 1012.2 986.8
23 21.07 СВ 3 н/о н/о +19.1 +2.5 33 +20 +20 1013.9 988.4
02 22.07 С 4 н/о н/о +28.0 +5.6 24 +27 +27 жарко 1013.8 988.3 +14.5
05 22.07 В 5 н/о н/о +31.6 -0.1 13 +28 +28 жарко 1010.9 985.5
08 22.07 ЮВ 3 н/о н/о +31.0 +0.4 14 +28 +28 жарко 1010.6 985.2
11 22.07 В 2 н/о н/о +24.4 +1.3 22 +23 +23 комфорт 1012.8 987.4

 

Местоположение метеостанции База ВВС Delamere Weapons Range (Северная территория, Австралия): широта -15.75 долгота 131.92 высота над уровнем моря 222 м.

В архиве по умолчанию представлена погода на Базе ВВС Delamere Weapons Range за последнюю неделю. Архивные данные за месяц целиком и за предыдущие месяцы, начиная с января 2011 года, Вы можете получить, выбрав интересующий диапазон дат из раскрывающегося списка и нажав кнопку "Ввод!".


*Определитесь, кто Вы:
робот инопланетянин человек

Внимание! Время в таблицах - всемирное. Для получения местного времени необходимо прибавить поправку, которая равна 9.5 ч.

Смотрите также архив погоды в соседних городах и на ближайших метеорологических станциях:

Погода в Виктория-Ривер (Северная территория, Австралия) (120 км)
Погода в Тиндале (Северная территория, Австралия) (146 км)
Погода в Манбуллу Ксиро (Северная территория, Австралия) (149 км)
Погода в Дейли Уотерс (Северная территория, Австралия) (165 км)
Погода на Маяке Кейп-Дон (Северная территория, Австралия) (228 км)
Погода на Центральном плато Арнем (Северная территория, Австралия) (297 км)
Погода в Порт Китс (Северная территория, Австралия) (306 км)
Погода в Батчелоре (Северная территория, Австралия) (316 км)
Погода в Ладжаману (Северная территория, Австралия) (318 км)
Погода в Кунунарре (Западная Австралия, Австралия) (344 км)

Пояснения к столбцам:

Ветер - указаны скорость ветра в м/с - средняя за 10 мин, порывы в срок и между сроками (в фигурных скобках) и направление, откуда дует ветер: С - северный, СВ - северо-восточный, В - восточный, ЮВ - юго-восточный, Ю - южный, ЮЗ - юго-западный, З - западный, СЗ - северо-западный.
Видимость - горизонтальная дальность видимости в метрах или километрах. При видимости от 1 до 10 км при отсутствии осадков обычно наблюдается дымка, при ухудшении видимости до 1 км и менее - туман. В сухую погоду видимость может ухудшаться дымом, пылью или мглою.
Явления - указаны атмосферные явления, наблюдавшиеся в срок или в последний час перед сроком; фигурными скобками обозначены явления, наблюдавшиеся между сроками (за 1-3 часа до срока); квадратными скобками обозначены град или гололедные отложения с указанием их диаметра в мм.
Облачность - указаны через наклонную черту общая и нижняя облачность в баллах и высота нижней границы облаков в метрах; квадратными скобками обозначены формы облаков: Ci - перистые, Cs - перисто-слоистые, Cc - перисто-кучевые, Ac - высококучевые, As - высокослоистые, Sc - слоисто-кучевые, Ns - слоисто-дождевые, Cu - кучевые, Cb - кучево-дождевые. Подробнее классификацию облаков см. в Атласе облаков (PDF).
T - Температура воздуха - температура, измеренная на высоте 2 м над землей.
Td - Температура точки росы - температура, при понижении до которой содержащийся в воздухе водяной пар достигнет насыщения.
f - Относительная влажность воздуха - влажноcть воздуха, измеренная на высоте 2 м над землей.
Te - Эффективная температура - температура, которую ощущает одетый по сезону человек в тени. Характеристика душности погоды. При расчете учитывается влияние влажности воздуха и скорости ветра на теплоощущения человека.
Tes - Эффективная температура на солнце - температура, которую ощущает человек, с поправкой на солнечный нагрев. Характеристика знойности погоды. Зависит от высоты солнца над горизонтом, облачности и скорости ветра. Ночью, в пасмурную погоду, а также при ветре 12 м/с и более поправка равна нулю.
P - Атмосферное давление - приведенное к уровню моря атмосферное давление.
Po - Атмосферное давление - измеренное на уровне метеостанции атмосферное давление.
Tmin - Минимальная температура - минимум температуры воздуха на высоте 2 м над землей.
Tmax - Максимальная температура - максимум температуры воздуха на высоте 2 м над землей.
R - Количество осадков - Количество выпавших осадков за период времени, мм. При наведении курсора мыши на число - период времени, за который выпало указанное количество осадков.
R24 - Количество осадков - Количество выпавших осадков за 24 часа, мм.
S - Снежный покров - Высота снежного покрова, см. При наведении курсора мыши на число - состояние снежного покрова и степень покрытия местности в баллах.